Time,TemperatureF,DewpointF,PressureIn,WindDirection,WindDirectionDegrees,WindSpeedMPH,WindSpeedGustMPH,Humidity,HourlyPrecipIn,Conditions,Clouds,dailyrainin,SoftwareType,DateUTC
2013-11-29 00:04:00,40.6,29.4,30.39,ESE,120,8.0,10.0,64,0.00,,---,0.00,VWS V14.01,2013-11-29 06:04:00,
2013-11-29 00:09:00,40.4,29.2,30.39,ESE,110,10.0,10.0,64,0.00,,---,0.00,VWS V14.01,2013-11-29 06:09:00,
2013-11-29 00:14:00,40.3,29.1,30.39,SE,127,5.0,10.0,64,0.00,,---,0.00,VWS V14.01,2013-11-29 06:14:00,
2013-11-29 00:19:00,40.2,29.0,30.39,SSE,154,4.0,10.0,64,0.00,,---,0.00,VWS V14.01,2013-11-29 06:19:00,
2013-11-29 00:24:00,40.1,29.3,30.39,SE,136,3.0,10.0,65,0.00,,---,0.00,VWS V14.01,2013-11-29 06:24:00,
2013-11-29 00:29:00,39.9,29.1,30.39,ESE,117,5.0,10.0,65,0.00,,---,0.00,VWS V14.01,2013-11-29 06:29:00,
2013-11-29 00:34:00,39.8,29.0,30.40,SSE,150,5.0,8.0,65,0.00,,---,0.00,VWS V14.01,2013-11-29 06:34:00,
2013-11-29 00:39:00,39.6,29.2,30.40,ESE,117,5.0,8.0,66,0.00,,---,0.00,VWS V14.01,2013-11-29 06:39:00,
2013-11-29 00:45:00,39.4,29.0,30.40,SE,132,5.0,8.0,66,0.00,,---,0.00,VWS V14.01,2013-11-29 06:45:00,
2013-11-29 00:50:00,39.2,29.2,30.40,ESE,120,3.0,8.0,67,0.00,,---,0.00,VWS V14.01,2013-11-29 06:50:00,
2013-11-29 00:55:00,39.1,29.1,30.40,SSE,162,5.0,8.0,67,0.00,,---,0.00,VWS V14.01,2013-11-29 06:55:00,
2013-11-29 01:00:00,38.8,28.8,30.40,SSE,167,4.0,8.0,67,0.00,,---,0.00,VWS V14.01,2013-11-29 07:00:00,
2013-11-29 01:05:00,38.6,29.0,30.40,SE,146,4.0,4.0,68,0.00,,---,0.00,VWS V14.01,2013-11-29 07:05:00,
2013-11-29 01:10:00,38.5,28.9,30.40,SE,137,2.0,6.0,68,0.00,,---,0.00,VWS V14.01,2013-11-29 07:10:00,
2013-11-29 01:15:00,38.3,28.7,30.40,SE,130,4.0,6.0,68,0.00,,---,0.00,VWS V14.01,2013-11-29 07:15:00,
2013-11-29 01:20:00,38.0,28.8,30.39,SE,131,3.0,6.0,69,0.00,,---,0.00,VWS V14.01,2013-11-29 07:20:00,
2013-11-29 01:25:00,37.8,28.9,30.39,ESE,117,4.0,6.0,70,0.00,,---,0.00,VWS V14.01,2013-11-29 07:25:00,
2013-11-29 01:30:00,37.8,28.9,30.39,SE,132,5.0,7.0,70,0.00,,---,0.00,VWS V14.01,2013-11-29 07:30:00,
2013-11-29 01:35:00,37.8,28.9,30.39,SE,131,4.0,7.0,70,0.00,,---,0.00,VWS V14.01,2013-11-29 07:35:00,
2013-11-29 01:40:00,37.7,28.8,30.39,SE,127,3.0,7.0,70,0.00,,---,0.00,VWS V14.01,2013-11-29 07:40:00,
2013-11-29 01:45:00,37.5,28.6,30.39,SSE,158,2.0,7.0,70,0.00,,---,0.00,VWS V14.01,2013-11-29 07:45:00,
2013-11-29 01:50:00,37.4,28.9,30.40,SSE,160,3.0,7.0,71,0.00,,---,0.00,VWS V14.01,2013-11-29 07:50:00,
2013-11-29 01:55:00,37.2,28.7,30.39,SE,131,5.0,7.0,71,0.00,,---,0.00,VWS V14.01,2013-11-29 07:55:00,
2013-11-29 02:01:00,37.2,28.7,30.39,SE,124,2.0,4.0,71,0.00,,---,0.00,VWS V14.01,2013-11-29 08:01:00,
2013-11-29 02:06:00,37.3,28.8,30.39,SE,134,4.0,7.0,71,0.00,,---,0.00,VWS V14.01,2013-11-29 08:06:00,
2013-11-29 02:11:00,37.3,28.8,30.39,SE,146,4.0,7.0,71,0.00,,---,0.00,VWS V14.01,2013-11-29 08:11:00,
2013-11-29 02:16:00,37.2,28.7,30.40,SE,134,5.0,7.0,71,0.00,,---,0.00,VWS V14.01,2013-11-29 08:16:00,
2013-11-29 02:21:00,37.1,28.6,30.40,SE,134,4.0,8.0,71,0.00,,---,0.00,VWS V14.01,2013-11-29 08:21:00,
2013-11-29 02:26:00,37.0,28.8,30.40,SE,131,4.0,8.0,72,0.00,,---,0.00,VWS V14.01,2013-11-29 08:26:00,
2013-11-29 02:31:00,36.7,28.5,30.40,SE,127,4.0,5.0,72,0.00,,---,0.00,VWS V14.01,2013-11-29 08:31:00,
2013-11-29 02:36:00,36.4,28.6,30.40,ESE,105,4.0,5.0,73,0.00,,---,0.00,VWS V14.01,2013-11-29 08:36:00,
2013-11-29 02:41:00,36.2,28.4,30.40,SE,132,4.0,5.0,73,0.00,,---,0.00,VWS V14.01,2013-11-29 08:41:00,
2013-11-29 02:46:00,36.1,28.6,30.40,SE,130,4.0,5.0,74,0.00,,---,0.00,VWS V14.01,2013-11-29 08:46:00,
2013-11-29 02:51:00,36.0,28.5,30.40,SE,142,3.0,6.0,74,0.00,,---,0.00,VWS V14.01,2013-11-29 08:51:00,
2013-11-29 02:56:00,35.9,28.4,30.40,SE,141,3.0,6.0,74,0.00,,---,0.00,VWS V14.01,2013-11-29 08:56:00,
2013-11-29 03:01:00,35.6,28.5,30.40,SE,138,2.0,4.0,75,0.00,,---,0.00,VWS V14.01,2013-11-29 09:01:00,
2013-11-29 03:07:00,35.5,28.4,30.39,ESE,122,4.0,6.0,75,0.00,,---,0.00,VWS V14.01,2013-11-29 09:07:00,
2013-11-29 03:12:00,35.5,28.4,30.39,ESE,122,3.0,6.0,75,0.00,,---,0.00,VWS V14.01,2013-11-29 09:12:00,
2013-11-29 03:17:00,35.5,28.4,30.39,ESE,114,3.0,6.0,75,0.00,,---,0.00,VWS V14.01,2013-11-29 09:17:00,
2013-11-29 03:22:00,35.5,28.4,30.39,SE,134,4.0,6.0,75,0.00,,---,0.00,VWS V14.01,2013-11-29 09:22:00,
2013-11-29 03:27:00,35.6,28.5,30.39,ESE,113,3.0,6.0,75,0.00,,---,0.00,VWS V14.01,2013-11-29 09:27:00,
2013-11-29 03:32:00,35.5,28.4,30.39,ESE,104,2.0,4.0,75,0.00,,---,0.00,VWS V14.01,2013-11-29 09:32:00,
2013-11-29 03:37:00,35.4,28.3,30.39,SE,128,2.0,4.0,75,0.00,,---,0.00,VWS V14.01,2013-11-29 09:37:00,
2013-11-29 03:42:00,35.3,28.2,30.39,ESE,118,3.0,4.0,75,0.00,,---,0.00,VWS V14.01,2013-11-29 09:42:00,
2013-11-29 03:47:00,35.3,28.2,30.39,ESE,122,3.0,5.0,75,0.00,,---,0.00,VWS V14.01,2013-11-29 09:47:00,
2013-11-29 03:52:00,35.1,28.3,30.39,SE,136,4.0,5.0,76,0.00,,---,0.00,VWS V14.01,2013-11-29 09:52:00,
2013-11-29 03:57:00,34.8,28.0,30.39,SE,129,4.0,5.0,76,0.00,,---,0.00,VWS V14.01,2013-11-29 09:57:00,
2013-11-29 04:02:00,34.4,28.0,30.40,ESE,120,3.0,4.0,77,0.00,,---,0.00,VWS V14.01,2013-11-29 10:02:00,
2013-11-29 04:08:00,34.2,28.1,30.40,ESE,113,4.0,5.0,78,0.00,,---,0.00,VWS V14.01,2013-11-29 10:08:00,
2013-11-29 04:13:00,34.2,28.1,30.39,ESE,122,3.0,6.0,78,0.00,,---,0.00,VWS V14.01,2013-11-29 10:13:00,
2013-11-29 04:18:00,34.1,28.0,30.39,SE,129,3.0,7.0,78,0.00,,---,0.00,VWS V14.01,2013-11-29 10:18:00,
2013-11-29 04:23:00,34.0,28.2,30.39,SE,134,4.0,7.0,79,0.00,,---,0.00,VWS V14.01,2013-11-29 10:23:00,
2013-11-29 04:28:00,34.1,28.3,30.39,SE,132,3.0,7.0,79,0.00,,---,0.00,VWS V14.01,2013-11-29 10:28:00,
2013-11-29 04:33:00,34.0,28.2,30.39,ESE,114,3.0,5.0,79,0.00,,---,0.00,VWS V14.01,2013-11-29 10:33:00,
2013-11-29 04:38:00,33.9,28.1,30.39,ESE,117,4.0,5.0,79,0.00,,---,0.00,VWS V14.01,2013-11-29 10:38:00,
2013-11-29 04:43:00,33.9,28.1,30.39,ESE,104,4.0,5.0,79,0.00,,---,0.00,VWS V14.01,2013-11-29 10:43:00,
2013-11-29 04:48:00,33.9,28.1,30.40,SE,127,4.0,6.0,79,0.00,,---,0.00,VWS V14.01,2013-11-29 10:48:00,
2013-11-29 04:53:00,33.8,28.0,30.40,ESE,114,4.0,6.0,79,0.00,,---,0.00,VWS V14.01,2013-11-29 10:53:00,
2013-11-29 04:58:00,33.5,28.0,30.40,East,101,2.0,6.0,80,0.00,,---,0.00,VWS V14.01,2013-11-29 10:58:00,
2013-11-29 05:03:00,33.4,27.9,30.40,ESE,118,2.0,4.0,80,0.00,,---,0.00,VWS V14.01,2013-11-29 11:03:00,
2013-11-29 05:08:00,33.3,27.8,30.40,East,99,2.0,4.0,80,0.00,,---,0.00,VWS V14.01,2013-11-29 11:08:00,
2013-11-29 05:13:00,33.1,27.9,30.40,SE,125,3.0,5.0,81,0.00,,---,0.00,VWS V14.01,2013-11-29 11:13:00,
2013-11-29 05:19:00,33.1,27.9,30.40,ESE,110,4.0,5.0,81,0.00,,---,0.00,VWS V14.01,2013-11-29 11:19:00,
2013-11-29 05:24:00,33.1,27.9,30.40,SE,131,4.0,5.0,81,0.00,,---,0.00,VWS V14.01,2013-11-29 11:24:00,
2013-11-29 05:29:00,33.1,27.9,30.40,SE,132,4.0,6.0,81,0.00,,---,0.00,VWS V14.01,2013-11-29 11:29:00,
2013-11-29 05:34:00,33.1,27.9,30.40,ESE,109,4.0,6.0,81,0.00,,---,0.00,VWS V14.01,2013-11-29 11:34:00,
2013-11-29 05:39:00,33.1,27.9,30.40,ESE,103,5.0,7.0,81,0.00,,---,0.00,VWS V14.01,2013-11-29 11:39:00,
2013-11-29 05:44:00,33.2,28.0,30.40,ESE,122,5.0,7.0,81,0.00,,---,0.00,VWS V14.01,2013-11-29 11:44:00,
2013-11-29 05:49:00,33.3,28.1,30.40,SE,129,6.0,7.0,81,0.00,,---,0.00,VWS V14.01,2013-11-29 11:49:00,
2013-11-29 05:54:00,33.1,27.9,30.40,SE,136,2.0,7.0,81,0.00,,---,0.00,VWS V14.01,2013-11-29 11:54:00,
2013-11-29 05:59:00,32.9,27.7,30.40,SSE,158,2.0,7.0,81,0.00,,---,0.00,VWS V14.01,2013-11-29 11:59:00,
2013-11-29 06:04:00,32.9,27.7,30.41,SSE,162,1.0,3.0,81,0.00,,---,0.00,VWS V14.01,2013-11-29 12:04:00,
2013-11-29 06:09:00,32.8,27.6,30.41,SE,146,1.0,3.0,81,0.00,,---,0.00,VWS V14.01,2013-11-29 12:09:00,
2013-11-29 06:14:00,32.8,27.6,30.41,SSE,150,1.0,3.0,81,0.00,,---,0.00,VWS V14.01,2013-11-29 12:14:00,
2013-11-29 06:19:00,32.7,27.8,30.41,SSE,160,0.0,4.0,82,0.00,,---,0.00,VWS V14.01,2013-11-29 12:19:00,
2013-11-29 06:24:00,32.6,27.7,30.41,SE,136,2.0,4.0,82,0.00,,---,0.00,VWS V14.01,2013-11-29 12:24:00,
2013-11-29 06:29:00,32.5,27.6,30.41,SE,146,1.0,4.0,82,0.00,,---,0.00,VWS V14.01,2013-11-29 12:29:00,
2013-11-29 06:34:00,32.3,27.4,30.41,South,187,0.0,2.0,82,0.00,,---,0.00,VWS V14.01,2013-11-29 12:34:00,
2013-11-29 06:40:00,32.0,27.4,30.41,SE,129,0.0,2.0,83,0.00,,---,0.00,VWS V14.01,2013-11-29 12:40:00,
2013-11-29 06:45:00,31.9,27.3,30.41,SE,126,1.0,3.0,83,0.00,,---,0.00,VWS V14.01,2013-11-29 12:45:00,
2013-11-29 06:50:00,31.7,27.1,30.41,ESE,122,2.0,5.0,83,0.00,,---,0.00,VWS V14.01,2013-11-29 12:50:00,
2013-11-29 06:55:00,31.5,27.2,30.41,ESE,122,5.0,5.0,84,0.00,,---,0.00,VWS V14.01,2013-11-29 12:55:00,
2013-11-29 07:00:00,31.4,27.1,30.41,SSE,157,2.0,6.0,84,0.00,,---,0.00,VWS V14.01,2013-11-29 13:00:00,
2013-11-29 07:05:00,31.3,27.0,30.42,SE,125,5.0,5.0,84,0.00,,---,0.00,VWS V14.01,2013-11-29 13:05:00,
2013-11-29 07:10:00,31.4,27.4,30.42,SE,127,3.0,7.0,85,0.00,,---,0.00,VWS V14.01,2013-11-29 13:10:00,
2013-11-29 07:15:00,31.4,27.1,30.42,SE,124,4.0,8.0,84,0.00,,---,0.00,VWS V14.01,2013-11-29 13:15:00,
2013-11-29 07:20:00,31.5,27.5,30.42,SE,135,7.0,8.0,85,0.00,,---,0.00,VWS V14.01,2013-11-29 13:20:00,
2013-11-29 07:25:00,31.6,27.6,30.42,SE,146,4.0,8.0,85,0.00,,---,0.00,VWS V14.01,2013-11-29 13:25:00,
2013-11-29 07:30:00,31.7,27.4,30.42,ESE,110,4.0,5.0,84,0.00,,---,0.00,VWS V14.01,2013-11-29 13:30:00,
2013-11-29 07:35:00,31.8,27.5,30.41,ESE,115,5.0,7.0,84,0.00,,---,0.00,VWS V14.01,2013-11-29 13:35:00,
2013-11-29 07:40:00,32.0,27.7,30.41,SE,126,7.0,7.0,84,0.00,,---,0.00,VWS V14.01,2013-11-29 13:40:00,
2013-11-29 07:45:00,32.2,27.9,30.41,SE,135,5.0,8.0,84,0.00,,---,0.00,VWS V14.01,2013-11-29 13:45:00,
2013-11-29 07:50:00,32.5,28.2,30.41,ESE,122,6.0,9.0,84,0.00,,---,0.00,VWS V14.01,2013-11-29 13:50:00,
2013-11-29 07:56:00,32.9,28.6,30.41,ESE,119,7.0,9.0,84,0.00,,---,0.00,VWS V14.01,2013-11-29 13:56:00,
2013-11-29 08:01:00,33.3,28.7,30.41,ESE,118,7.0,7.0,83,0.00,,---,0.00,VWS V14.01,2013-11-29 14:01:00,
2013-11-29 08:06:00,33.7,29.1,30.42,ESE,120,5.0,8.0,83,0.00,,---,0.00,VWS V14.01,2013-11-29 14:06:00,
2013-11-29 08:11:00,34.2,29.3,30.42,SE,141,6.0,8.0,82,0.00,,---,0.00,VWS V14.01,2013-11-29 14:11:00,
2013-11-29 08:16:00,34.7,29.8,30.42,ESE,122,5.0,8.0,82,0.00,,---,0.00,VWS V14.01,2013-11-29 14:16:00,
2013-11-29 08:21:00,35.3,30.1,30.42,SE,141,4.0,8.0,81,0.00,,---,0.00,VWS V14.01,2013-11-29 14:21:00,
2013-11-29 08:26:00,35.9,30.0,30.42,SSE,151,5.0,8.0,79,0.00,,---,0.00,VWS V14.01,2013-11-29 14:26:00,
2013-11-29 08:31:00,36.2,30.0,30.42,SE,132,5.0,7.0,78,0.00,,---,0.00,VWS V14.01,2013-11-29 14:31:00,
2013-11-29 08:36:00,36.5,30.3,30.42,South,187,5.0,9.0,78,0.00,,---,0.00,VWS V14.01,2013-11-29 14:36:00,
2013-11-29 08:41:00,36.7,30.5,30.42,South,181,5.0,10.0,78,0.00,,---,0.00,VWS V14.01,2013-11-29 14:41:00,
2013-11-29 08:46:00,37.2,31.0,30.42,South,174,5.0,10.0,78,0.00,,---,0.00,VWS V14.01,2013-11-29 14:46:00,
2013-11-29 08:51:00,37.8,31.2,30.42,SSE,147,6.0,10.0,77,0.00,,---,0.00,VWS V14.01,2013-11-29 14:51:00,
2013-11-29 08:56:00,38.3,31.7,30.42,South,176,4.0,10.0,77,0.00,,---,0.00,VWS V14.01,2013-11-29 14:56:00,
2013-11-29 09:01:00,39.1,31.9,30.43,South,170,5.0,8.0,75,0.00,,---,0.00,VWS V14.01,2013-11-29 15:01:00,
2013-11-29 09:07:00,39.5,31.9,30.43,SE,135,6.0,10.0,74,0.00,,---,0.00,VWS V14.01,2013-11-29 15:07:00,
2013-11-29 09:12:00,39.8,32.2,30.43,SSE,160,9.0,10.0,74,0.00,,---,0.00,VWS V14.01,2013-11-29 15:12:00,
2013-11-29 09:17:00,40.2,32.2,30.43,South,180,7.0,11.0,73,0.00,,---,0.00,VWS V14.01,2013-11-29 15:17:00,
2013-11-29 09:22:00,40.5,32.5,30.43,SSE,157,6.0,11.0,73,0.00,,---,0.00,VWS V14.01,2013-11-29 15:22:00,
2013-11-29 09:27:00,40.9,32.9,30.43,SE,142,5.0,11.0,73,0.00,,---,0.00,VWS V14.01,2013-11-29 15:27:00,
2013-11-29 09:32:00,41.6,33.3,30.43,SSW,197,5.0,8.0,72,0.00,,---,0.00,VWS V14.01,2013-11-29 15:32:00,
2013-11-29 09:37:00,42.0,32.9,30.43,South,176,3.0,9.0,70,0.00,,---,0.00,VWS V14.01,2013-11-29 15:37:00,
2013-11-29 09:42:00,42.3,33.6,30.43,South,169,6.0,9.0,71,0.00,,---,0.00,VWS V14.01,2013-11-29 15:42:00,
2013-11-29 09:47:00,42.8,33.7,30.43,SSE,147,8.0,9.0,70,0.00,,---,0.00,VWS V14.01,2013-11-29 15:47:00,
2013-11-29 09:52:00,43.2,34.1,30.43,SE,131,3.0,9.0,70,0.00,,---,0.00,VWS V14.01,2013-11-29 15:52:00,
2013-11-29 09:57:00,43.8,34.7,30.43,SE,139,9.0,9.0,70,0.00,,---,0.00,VWS V14.01,2013-11-29 15:57:00,
2013-11-29 10:02:00,44.2,34.7,30.43,SSE,159,6.0,9.0,69,0.00,,---,0.00,VWS V14.01,2013-11-29 16:02:00,
2013-11-29 10:07:00,44.9,35.4,30.42,SE,139,6.0,9.0,69,0.00,,---,0.00,VWS V14.01,2013-11-29 16:07:00,
2013-11-29 10:12:00,45.5,35.9,30.42,SSE,153,7.0,9.0,69,0.00,,---,0.00,VWS V14.01,2013-11-29 16:12:00,
2013-11-29 10:17:00,46.3,36.0,30.42,ESE,123,7.0,9.0,67,0.00,,---,0.00,VWS V14.01,2013-11-29 16:17:00,
2013-11-29 10:22:00,47.0,36.2,30.42,South,172,6.0,11.0,66,0.00,,---,0.00,VWS V14.01,2013-11-29 16:22:00,
2013-11-29 10:28:00,47.9,36.7,30.42,SSE,156,9.0,11.0,65,0.00,,---,0.00,VWS V14.01,2013-11-29 16:28:00,
2013-11-29 10:33:00,48.4,36.4,30.42,SE,139,8.0,13.0,63,0.00,,---,0.00,VWS V14.01,2013-11-29 16:33:00,
2013-11-29 10:38:00,48.9,36.5,30.41,SSE,162,11.0,13.0,62,0.00,,---,0.00,VWS V14.01,2013-11-29 16:38:00,
2013-11-29 10:43:00,49.4,36.5,30.41,SE,124,6.0,13.0,61,0.00,,---,0.00,VWS V14.01,2013-11-29 16:43:00,
2013-11-29 10:48:00,50.1,36.3,30.41,SSE,162,7.0,15.0,59,0.00,,---,0.00,VWS V14.01,2013-11-29 16:48:00,
2013-11-29 10:53:00,50.5,35.8,30.42,SE,132,8.0,15.0,57,0.00,,---,0.00,VWS V14.01,2013-11-29 16:53:00,
2013-11-29 10:58:00,50.8,35.7,30.41,SSE,155,14.0,15.0,56,0.00,,---,0.00,VWS V14.01,2013-11-29 16:58:00,
2013-11-29 11:03:00,51.3,35.7,30.41,SSE,148,11.0,15.0,55,0.00,,---,0.00,VWS V14.01,2013-11-29 17:03:00,
2013-11-29 11:08:00,51.7,35.6,30.41,SE,136,12.0,15.0,54,0.00,,---,0.00,VWS V14.01,2013-11-29 17:08:00,
2013-11-29 11:13:00,52.1,35.5,30.41,SE,135,7.0,15.0,53,0.00,,---,0.00,VWS V14.01,2013-11-29 17:13:00,
2013-11-29 11:18:00,52.5,35.4,30.41,South,172,13.0,17.0,52,0.00,,---,0.00,VWS V14.01,2013-11-29 17:18:00,
2013-11-29 11:24:00,52.7,35.6,30.40,SE,142,5.0,17.0,52,0.00,,---,0.00,VWS V14.01,2013-11-29 17:24:00,
2013-11-29 11:29:00,53.3,35.7,30.40,SW,218,8.0,17.0,51,0.00,,---,0.00,VWS V14.01,2013-11-29 17:29:00,
2013-11-29 11:34:00,53.7,35.5,30.40,South,169,9.0,15.0,50,0.00,,---,0.00,VWS V14.01,2013-11-29 17:34:00,
2013-11-29 11:39:00,53.9,35.2,30.39,SSW,201,7.0,15.0,49,0.00,,---,0.00,VWS V14.01,2013-11-29 17:39:00,
2013-11-29 11:44:00,54.5,35.8,30.39,South,190,9.0,16.0,49,0.00,,---,0.00,VWS V14.01,2013-11-29 17:44:00,
2013-11-29 11:49:00,55.1,35.8,30.39,South,175,12.0,16.0,48,0.00,,---,0.00,VWS V14.01,2013-11-29 17:49:00,
2013-11-29 11:54:00,54.9,35.1,30.38,South,190,7.0,16.0,47,0.00,,---,0.00,VWS V14.01,2013-11-29 17:54:00,
2013-11-29 11:59:00,55.1,35.2,30.38,SSE,157,10.0,16.0,47,0.00,,---,0.00,VWS V14.01,2013-11-29 17:59:00,
2013-11-29 12:04:00,55.1,35.2,30.37,South,186,13.0,14.0,47,0.00,,---,0.00,VWS V14.01,2013-11-29 18:04:00,
2013-11-29 12:09:00,55.7,35.3,30.37,SSW,200,12.0,17.0,46,0.00,,---,0.00,VWS V14.01,2013-11-29 18:09:00,
2013-11-29 12:14:00,56.1,35.1,30.36,SSE,152,13.0,17.0,45,0.00,,---,0.00,VWS V14.01,2013-11-29 18:14:00,
2013-11-29 12:19:00,56.5,34.9,30.36,SSE,158,5.0,17.0,44,0.00,,---,0.00,VWS V14.01,2013-11-29 18:19:00,
2013-11-29 12:24:00,56.8,34.6,30.35,SE,142,18.0,21.0,43,0.00,,---,0.00,VWS V14.01,2013-11-29 18:24:00,
2013-11-29 12:29:00,56.8,34.6,30.35,SE,139,12.0,21.0,43,0.00,,---,0.00,VWS V14.01,2013-11-29 18:29:00,
2013-11-29 12:34:00,57.2,34.9,30.35,SSW,195,10.0,19.0,43,0.00,,---,0.00,VWS V14.01,2013-11-29 18:34:00,
2013-11-29 12:39:00,57.3,35.0,30.34,SSW,193,11.0,19.0,43,0.00,,---,0.00,VWS V14.01,2013-11-29 18:39:00,
2013-11-29 12:45:00,57.4,35.1,30.34,South,169,12.0,19.0,43,0.00,,---,0.00,VWS V14.01,2013-11-29 18:45:00,
2013-11-29 12:50:00,57.4,34.5,30.34,SSW,201,18.0,20.0,42,0.00,,---,0.00,VWS V14.01,2013-11-29 18:50:00,
2013-11-29 12:55:00,57.6,34.7,30.33,SE,146,19.0,20.0,42,0.00,,---,0.00,VWS V14.01,2013-11-29 18:55:00,
2013-11-29 13:00:00,57.5,34.6,30.33,SSE,165,12.0,20.0,42,0.00,,---,0.00,VWS V14.01,2013-11-29 19:00:00,
2013-11-29 13:05:00,57.9,34.4,30.33,South,174,9.0,18.0,41,0.00,,---,0.00,VWS V14.01,2013-11-29 19:05:00,
2013-11-29 13:10:00,58.3,34.1,30.32,SE,134,11.0,19.0,40,0.00,,---,0.00,VWS V14.01,2013-11-29 19:10:00,
2013-11-29 13:15:00,58.5,34.9,30.32,SSW,195,7.0,19.0,41,0.00,,---,0.00,VWS V14.01,2013-11-29 19:15:00,
2013-11-29 13:20:00,58.5,34.3,30.32,SSE,159,19.0,24.0,40,0.00,,---,0.00,VWS V14.01,2013-11-29 19:20:00,
2013-11-29 13:25:00,58.5,34.3,30.31,South,190,14.0,24.0,40,0.00,,---,0.00,VWS V14.01,2013-11-29 19:25:00,
2013-11-29 13:30:00,59.0,34.7,30.31,SW,229,9.0,10.0,40,0.00,,---,0.00,VWS V14.01,2013-11-29 19:30:00,
2013-11-29 13:35:00,59.1,34.8,30.31,SSE,156,16.0,19.0,40,0.00,,---,0.00,VWS V14.01,2013-11-29 19:35:00,
2013-11-29 13:40:00,59.2,34.3,30.30,SE,146,13.0,24.0,39,0.00,,---,0.00,VWS V14.01,2013-11-29 19:40:00,
2013-11-29 13:45:00,59.1,34.8,30.30,SSW,193,9.0,24.0,40,0.00,,---,0.00,VWS V14.01,2013-11-29 19:45:00,
2013-11-29 13:50:00,59.4,34.5,30.30,SSW,194,16.0,24.0,39,0.00,,---,0.00,VWS V14.01,2013-11-29 19:50:00,
2013-11-29 13:56:00,59.2,34.3,30.30,South,176,9.0,24.0,39,0.00,,---,0.00,VWS V14.01,2013-11-29 19:56:00,
2013-11-29 14:01:00,59.3,34.4,30.29,SE,145,17.0,21.0,39,0.00,,---,0.00,VWS V14.01,2013-11-29 20:01:00,
2013-11-29 14:06:00,59.2,34.3,30.29,SSE,162,18.0,22.0,39,0.00,,---,0.00,VWS V14.01,2013-11-29 20:06:00,
2013-11-29 14:11:00,59.4,33.8,30.29,SE,127,11.0,22.0,38,0.00,,---,0.00,VWS V14.01,2013-11-29 20:11:00,
2013-11-29 14:16:00,59.6,34.6,30.28,SSE,162,15.0,22.0,39,0.00,,---,0.00,VWS V14.01,2013-11-29 20:16:00,
2013-11-29 14:21:00,59.5,33.9,30.28,SE,145,9.0,22.0,38,0.00,,---,0.00,VWS V14.01,2013-11-29 20:21:00,
2013-11-29 14:26:00,59.7,34.1,30.28,SE,129,11.0,22.0,38,0.00,,---,0.00,VWS V14.01,2013-11-29 20:26:00,
2013-11-29 14:31:00,60.1,34.4,30.27,SSE,152,14.0,18.0,38,0.00,,---,0.00,VWS V14.01,2013-11-29 20:31:00,
2013-11-29 14:36:00,60.0,34.3,30.27,SSE,149,13.0,19.0,38,0.00,,---,0.00,VWS V14.01,2013-11-29 20:36:00,
2013-11-29 14:41:00,60.1,34.4,30.27,SSE,153,11.0,19.0,38,0.00,,---,0.00,VWS V14.01,2013-11-29 20:41:00,
2013-11-29 14:46:00,60.2,33.8,30.27,SSE,153,12.0,20.0,37,0.00,,---,0.00,VWS V14.01,2013-11-29 20:46:00,
2013-11-29 14:51:00,60.1,33.8,30.27,SSE,159,11.0,20.0,37,0.00,,---,0.00,VWS V14.01,2013-11-29 20:51:00,
2013-11-29 14:56:00,60.1,34.4,30.27,South,191,9.0,20.0,38,0.00,,---,0.00,VWS V14.01,2013-11-29 20:56:00,
2013-11-29 15:02:00,60.2,34.5,30.27,SSE,157,17.0,17.0,38,0.00,,---,0.00,VWS V14.01,2013-11-29 21:02:00,
2013-11-29 15:07:00,60.2,33.8,30.26,SE,139,8.0,18.0,37,0.00,,---,0.00,VWS V14.01,2013-11-29 21:07:00,
2013-11-29 15:12:00,60.4,34.0,30.26,SSE,153,12.0,23.0,37,0.00,,---,0.00,VWS V14.01,2013-11-29 21:12:00,
2013-11-29 15:17:00,60.1,33.8,30.26,SSE,166,11.0,23.0,37,0.00,,---,0.00,VWS V14.01,2013-11-29 21:17:00,
2013-11-29 15:22:00,60.1,34.4,30.26,SSE,155,12.0,23.0,38,0.00,,---,0.00,VWS V14.01,2013-11-29 21:22:00,
2013-11-29 15:27:00,60.4,34.7,30.26,South,183,11.0,23.0,38,0.00,,---,0.00,VWS V14.01,2013-11-29 21:27:00,
2013-11-29 15:32:00,60.6,34.9,30.26,SE,127,12.0,19.0,38,0.00,,---,0.00,VWS V14.01,2013-11-29 21:32:00,
2013-11-29 15:37:00,60.5,34.1,30.26,SSE,162,10.0,23.0,37,0.00,,---,0.00,VWS V14.01,2013-11-29 21:37:00,
2013-11-29 15:42:00,60.3,34.6,30.26,SSE,158,13.0,23.0,38,0.00,,---,0.00,VWS V14.01,2013-11-29 21:42:00,
2013-11-29 15:47:00,60.1,34.4,30.26,SSE,159,9.0,23.0,38,0.00,,---,0.00,VWS V14.01,2013-11-29 21:47:00,
2013-11-29 15:52:00,60.2,34.5,30.26,SSE,159,11.0,23.0,38,0.00,,---,0.00,VWS V14.01,2013-11-29 21:52:00,
2013-11-29 15:57:00,60.2,34.5,30.25,South,191,13.0,23.0,38,0.00,,---,0.00,VWS V14.01,2013-11-29 21:57:00,
2013-11-29 16:02:00,60.3,34.6,30.25,SE,129,10.0,19.0,38,0.00,,---,0.00,VWS V14.01,2013-11-29 22:02:00,
2013-11-29 16:07:00,60.3,34.6,30.25,SSE,158,13.0,23.0,38,0.00,,---,0.00,VWS V14.01,2013-11-29 22:07:00,
2013-11-29 16:12:00,60.4,34.0,30.25,South,183,10.0,23.0,37,0.00,,---,0.00,VWS V14.01,2013-11-29 22:12:00,
2013-11-29 16:17:00,60.2,34.5,30.25,SSE,149,12.0,23.0,38,0.00,,---,0.00,VWS V14.01,2013-11-29 22:17:00,
2013-11-29 16:23:00,60.1,34.4,30.25,SE,143,14.0,23.0,38,0.00,,---,0.00,VWS V14.01,2013-11-29 22:23:00,
2013-11-29 16:28:00,60.0,34.3,30.25,SSE,148,10.0,23.0,38,0.00,,---,0.00,VWS V14.01,2013-11-29 22:28:00,
2013-11-29 16:33:00,59.9,34.2,30.25,SSW,193,8.0,20.0,38,0.00,,---,0.00,VWS V14.01,2013-11-29 22:33:00,
2013-11-29 16:38:00,59.8,34.2,30.25,SSE,160,12.0,21.0,38,0.00,,---,0.00,VWS V14.01,2013-11-29 22:38:00,
2013-11-29 16:43:00,59.6,34.6,30.25,SSE,155,14.0,21.0,39,0.00,,---,0.00,VWS V14.01,2013-11-29 22:43:00,
2013-11-29 16:48:00,59.4,34.5,30.25,SSE,156,14.0,21.0,39,0.00,,---,0.00,VWS V14.01,2013-11-29 22:48:00,
2013-11-29 16:53:00,59.2,34.9,30.25,South,180,9.0,21.0,40,0.00,,---,0.00,VWS V14.01,2013-11-29 22:53:00,
2013-11-29 16:58:00,58.8,35.2,30.24,SE,145,15.0,21.0,41,0.00,,---,0.00,VWS V14.01,2013-11-29 22:58:00,
2013-11-29 17:03:00,58.4,34.8,30.24,SE,145,14.0,15.0,41,0.00,,---,0.00,VWS V14.01,2013-11-29 23:03:00,
2013-11-29 17:08:00,57.9,35.0,30.24,SSE,155,13.0,15.0,42,0.00,,---,0.00,VWS V14.01,2013-11-29 23:08:00,
2013-11-29 17:13:00,57.3,35.0,30.24,SSE,152,13.0,15.0,43,0.00,,---,0.00,VWS V14.01,2013-11-29 23:13:00,
2013-11-29 17:18:00,56.8,35.1,30.24,SE,143,15.0,16.0,44,0.00,,---,0.00,VWS V14.01,2013-11-29 23:18:00,
2013-11-29 17:23:00,56.3,35.2,30.24,SSE,159,12.0,16.0,45,0.00,,---,0.00,VWS V14.01,2013-11-29 23:23:00,
2013-11-29 17:29:00,55.8,34.8,30.24,SSE,156,7.0,16.0,45,0.00,,---,0.00,VWS V14.01,2013-11-29 23:29:00,
2013-11-29 17:34:00,55.3,34.9,30.24,SE,124,8.0,12.0,46,0.00,,---,0.00,VWS V14.01,2013-11-29 23:34:00,
2013-11-29 17:39:00,55.0,35.2,30.24,SE,131,8.0,14.0,47,0.00,,---,0.00,VWS V14.01,2013-11-29 23:39:00,
2013-11-29 17:44:00,54.8,35.0,30.24,SE,141,7.0,14.0,47,0.00,,---,0.00,VWS V14.01,2013-11-29 23:44:00,
2013-11-29 17:49:00,54.5,35.2,30.24,SSE,153,9.0,14.0,48,0.00,,---,0.00,VWS V14.01,2013-11-29 23:49:00,
2013-11-29 17:54:00,54.3,35.0,30.24,SE,134,5.0,14.0,48,0.00,,---,0.00,VWS V14.01,2013-11-29 23:54:00,
2013-11-29 17:59:00,54.1,35.4,30.24,ESE,120,6.0,14.0,49,0.00,,---,0.00,VWS V14.01,2013-11-29 23:59:00,
2013-11-29 18:04:00,54.0,35.8,30.24,ESE,123,6.0,10.0,50,0.00,,---,0.00,VWS V14.01,2013-11-30 00:04:00,
2013-11-29 18:09:00,53.8,35.6,30.24,SE,134,7.0,11.0,50,0.00,,---,0.00,VWS V14.01,2013-11-30 00:09:00,
2013-11-29 18:14:00,53.5,35.8,30.25,ESE,116,7.0,12.0,51,0.00,,---,0.00,VWS V14.01,2013-11-30 00:14:00,
2013-11-29 18:19:00,53.3,36.1,30.24,ESE,122,7.0,12.0,52,0.00,,---,0.00,VWS V14.01,2013-11-30 00:19:00,
2013-11-29 18:24:00,53.1,36.0,30.25,SE,125,8.0,12.0,52,0.00,,---,0.00,VWS V14.01,2013-11-30 00:24:00,
2013-11-29 18:29:00,53.1,36.4,30.25,SE,134,7.0,13.0,53,0.00,,---,0.00,VWS V14.01,2013-11-30 00:29:00,
2013-11-29 18:34:00,53.1,36.4,30.25,SE,127,10.0,13.0,53,0.00,,---,0.00,VWS V14.01,2013-11-30 00:34:00,
2013-11-29 18:39:00,53.2,36.5,30.25,SE,139,11.0,13.0,53,0.00,,---,0.00,VWS V14.01,2013-11-30 00:39:00,
2013-11-29 18:44:00,53.4,36.7,30.25,SSE,149,11.0,14.0,53,0.00,,---,0.00,VWS V14.01,2013-11-30 00:44:00,
2013-11-29 18:50:00,53.4,36.7,30.25,South,176,10.0,15.0,53,0.00,,---,0.00,VWS V14.01,2013-11-30 00:50:00,
2013-11-29 18:55:00,53.4,36.7,30.25,SE,133,13.0,15.0,53,0.00,,---,0.00,VWS V14.01,2013-11-30 00:55:00,
2013-11-29 19:00:00,53.1,36.9,30.25,SSE,152,9.0,15.0,54,0.00,,---,0.00,VWS V14.01,2013-11-30 01:00:00,
2013-11-29 19:05:00,52.3,36.6,30.25,SE,134,7.0,13.0,55,0.00,,---,0.00,VWS V14.01,2013-11-30 01:05:00,
2013-11-29 19:10:00,51.8,36.6,30.25,ESE,110,5.0,13.0,56,0.00,,---,0.00,VWS V14.01,2013-11-30 01:10:00,
2013-11-29 19:15:00,51.5,36.8,30.25,SE,133,8.0,13.0,57,0.00,,---,0.00,VWS V14.01,2013-11-30 01:15:00,
2013-11-29 19:20:00,51.3,36.6,30.25,ESE,117,7.0,13.0,57,0.00,,---,0.00,VWS V14.01,2013-11-30 01:20:00,
2013-11-29 19:25:00,51.0,36.8,30.25,SE,139,10.0,13.0,58,0.00,,---,0.00,VWS V14.01,2013-11-30 01:25:00,
2013-11-29 19:30:00,50.8,36.6,30.25,ESE,117,5.0,13.0,58,0.00,,---,0.00,VWS V14.01,2013-11-30 01:30:00,
2013-11-29 19:35:00,50.7,36.9,30.25,ESE,120,7.0,9.0,59,0.00,,---,0.00,VWS V14.01,2013-11-30 01:35:00,
2013-11-29 19:40:00,50.5,36.7,30.25,ESE,115,7.0,9.0,59,0.00,,---,0.00,VWS V14.01,2013-11-30 01:40:00,
2013-11-29 19:45:00,50.3,36.5,30.25,SE,143,6.0,9.0,59,0.00,,---,0.00,VWS V14.01,2013-11-30 01:45:00,
2013-11-29 19:50:00,50.1,36.8,30.25,SE,140,8.0,11.0,60,0.00,,---,0.00,VWS V14.01,2013-11-30 01:50:00,
2013-11-29 19:55:00,50.0,36.7,30.26,SE,143,7.0,11.0,60,0.00,,---,0.00,VWS V14.01,2013-11-30 01:55:00,
2013-11-29 20:00:00,50.1,36.8,30.26,ESE,120,8.0,8.0,60,0.00,,---,0.00,VWS V14.01,2013-11-30 02:00:00,
2013-11-29 20:05:00,50.1,36.8,30.26,ESE,115,7.0,10.0,60,0.00,,---,0.00,VWS V14.01,2013-11-30 02:05:00,
2013-11-29 20:11:00,50.0,36.7,30.26,SE,127,6.0,10.0,60,0.00,,---,0.00,VWS V14.01,2013-11-30 02:11:00,
2013-11-29 20:16:00,49.7,36.4,30.26,ESE,120,8.0,11.0,60,0.00,,---,0.00,VWS V14.01,2013-11-30 02:16:00,
2013-11-29 20:21:00,49.5,36.6,30.26,SE,139,5.0,11.0,61,0.00,,---,0.00,VWS V14.01,2013-11-30 02:21:00,
2013-11-29 20:26:00,49.4,36.5,30.26,SE,135,5.0,11.0,61,0.00,,---,0.00,VWS V14.01,2013-11-30 02:26:00,
2013-11-29 20:31:00,49.5,36.6,30.26,SE,127,5.0,7.0,61,0.00,,---,0.00,VWS V14.01,2013-11-30 02:31:00,
2013-11-29 20:36:00,49.3,36.4,30.27,SE,128,6.0,7.0,61,0.00,,---,0.00,VWS V14.01,2013-11-30 02:36:00,
2013-11-29 20:41:00,49.0,36.6,30.27,SE,135,4.0,7.0,62,0.00,,---,0.00,VWS V14.01,2013-11-30 02:41:00,
2013-11-29 20:46:00,48.7,36.3,30.27,ESE,108,5.0,7.0,62,0.00,,---,0.00,VWS V14.01,2013-11-30 02:46:00,
2013-11-29 20:51:00,48.3,36.3,30.27,SE,134,4.0,7.0,63,0.00,,---,0.00,VWS V14.01,2013-11-30 02:51:00,
2013-11-29 20:56:00,48.0,36.4,30.27,SE,128,4.0,7.0,64,0.00,,---,0.00,VWS V14.01,2013-11-30 02:56:00,
2013-11-29 21:01:00,47.6,36.4,30.27,ESE,122,4.0,5.0,65,0.00,,---,0.00,VWS V14.01,2013-11-30 03:01:00,
2013-11-29 21:06:00,47.4,36.6,30.26,SSE,149,5.0,7.0,66,0.00,,---,0.00,VWS V14.01,2013-11-30 03:06:00,
2013-11-29 21:11:00,47.5,36.7,30.26,ESE,115,6.0,9.0,66,0.00,,---,0.00,VWS V14.01,2013-11-30 03:11:00,
2013-11-29 21:16:00,47.7,36.9,30.26,SE,128,6.0,9.0,66,0.00,,---,0.00,VWS V14.01,2013-11-30 03:16:00,
2013-11-29 21:22:00,47.8,37.0,30.27,SE,132,5.0,9.0,66,0.00,,---,0.00,VWS V14.01,2013-11-30 03:22:00,
2013-11-29 21:27:00,48.0,37.2,30.27,SSE,148,4.0,11.0,66,0.00,,---,0.00,VWS V14.01,2013-11-30 03:27:00,
2013-11-29 21:32:00,48.0,36.8,30.27,ESE,117,6.0,7.0,65,0.00,,---,0.00,VWS V14.01,2013-11-30 03:32:00,
2013-11-29 21:37:00,47.8,37.0,30.27,SE,141,7.0,8.0,66,0.00,,---,0.00,VWS V14.01,2013-11-30 03:37:00,
2013-11-29 21:42:00,47.7,36.9,30.27,SE,131,5.0,9.0,66,0.00,,---,0.00,VWS V14.01,2013-11-30 03:42:00,
2013-11-29 21:47:00,47.5,36.7,30.27,SE,138,8.0,9.0,66,0.00,,---,0.00,VWS V14.01,2013-11-30 03:47:00,
2013-11-29 21:52:00,47.3,36.9,30.26,SE,143,7.0,9.0,67,0.00,,---,0.00,VWS V14.01,2013-11-30 03:52:00,
2013-11-29 21:57:00,47.2,37.2,30.26,SE,135,5.0,9.0,68,0.00,,---,0.00,VWS V14.01,2013-11-30 03:57:00,
2013-11-29 22:02:00,47.3,37.3,30.27,SSE,148,6.0,8.0,68,0.00,,---,0.00,VWS V14.01,2013-11-30 04:02:00,
2013-11-29 22:07:00,47.4,37.4,30.27,SSE,149,8.0,10.0,68,0.00,,---,0.00,VWS V14.01,2013-11-30 04:07:00,
2013-11-29 22:12:00,47.5,37.5,30.26,SE,138,7.0,10.0,68,0.00,,---,0.00,VWS V14.01,2013-11-30 04:12:00,
2013-11-29 22:17:00,47.7,37.7,30.26,SSE,160,7.0,12.0,68,0.00,,---,0.00,VWS V14.01,2013-11-30 04:17:00,
2013-11-29 22:22:00,47.7,37.7,30.26,SE,141,8.0,12.0,68,0.00,,---,0.00,VWS V14.01,2013-11-30 04:22:00,
2013-11-29 22:27:00,47.7,37.7,30.27,SSE,163,8.0,12.0,68,0.00,,---,0.00,VWS V14.01,2013-11-30 04:27:00,
2013-11-29 22:32:00,47.7,37.7,30.27,SE,141,9.0,13.0,68,0.00,,---,0.00,VWS V14.01,2013-11-30 04:32:00,
2013-11-29 22:38:00,47.6,37.6,30.27,SE,146,10.0,13.0,68,0.00,,---,0.00,VWS V14.01,2013-11-30 04:38:00,
2013-11-29 22:43:00,47.5,37.5,30.27,SSE,158,11.0,14.0,68,0.00,,---,0.00,VWS V14.01,2013-11-30 04:43:00,
2013-11-29 22:48:00,47.2,37.6,30.27,SE,136,6.0,14.0,69,0.00,,---,0.00,VWS V14.01,2013-11-30 04:48:00,
2013-11-29 22:53:00,47.1,37.8,30.26,SSE,152,7.0,14.0,70,0.00,,---,0.00,VWS V14.01,2013-11-30 04:53:00,
2013-11-29 22:58:00,46.9,37.6,30.26,SE,129,8.0,14.0,70,0.00,,---,0.00,VWS V14.01,2013-11-30 04:58:00,
2013-11-29 23:01:00,46.8,37.5,30.26,SSE,165,9.0,10.0,70,0.00,,---,0.00,VWS V14.01,2013-11-30 05:01:00,
2013-11-29 23:02:00,46.8,37.5,30.26,SE,127,10.0,11.0,70,0.00,,---,0.00,VWS V14.01,2013-11-30 05:02:00,
2013-11-29 23:07:00,46.6,37.7,30.26,SE,143,9.0,11.0,71,0.00,,---,0.00,VWS V14.01,2013-11-30 05:07:00,
2013-11-29 23:08:00,46.5,37.6,30.26,SSE,158,10.0,11.0,71,0.00,,---,0.00,VWS V14.01,2013-11-30 05:08:00,
2013-11-29 23:13:00,46.4,37.5,30.26,SSE,148,5.0,11.0,71,0.00,,---,0.00,VWS V14.01,2013-11-30 05:13:00,
2013-11-29 23:18:00,46.2,37.7,30.26,SE,134,7.0,11.0,72,0.00,,---,0.00,VWS V14.01,2013-11-30 05:18:00,
2013-11-29 23:23:00,46.0,37.5,30.26,SSE,150,5.0,11.0,72,0.00,,---,0.00,VWS V14.01,2013-11-30 05:23:00,
2013-11-29 23:28:00,45.9,37.8,30.26,SSE,163,8.0,11.0,73,0.00,,---,0.00,VWS V14.01,2013-11-30 05:28:00,
2013-11-29 23:33:00,45.8,37.7,30.26,SE,140,7.0,10.0,73,0.00,,---,0.00,VWS V14.01,2013-11-30 05:33:00,
2013-11-29 23:38:00,45.8,38.0,30.26,SSE,148,8.0,10.0,74,0.00,,---,0.00,VWS V14.01,2013-11-30 05:38:00,
2013-11-29 23:43:00,45.8,38.0,30.26,South,179,6.0,12.0,74,0.00,,---,0.00,VWS V14.01,2013-11-30 05:43:00,
2013-11-29 23:48:00,45.8,38.0,30.26,SSE,167,10.0,13.0,74,0.00,,---,0.00,VWS V14.01,2013-11-30 05:48:00,
2013-11-29 23:54:00,45.9,38.1,30.26,South,185,10.0,14.0,74,0.00,,---,0.00,VWS V14.01,2013-11-30 05:54:00,
2013-11-29 23:59:00,45.9,38.1,30.25,SE,142,9.0,15.0,74,0.00,,---,0.00,VWS V14.01,2013-11-30 05:59:00,